Flag for U.S.A. Weather past 2 weeks in Atlantic City, New Jersey, U.S.A.

Now
58 °F

Clear.


Feels Like: 57 °F
Forecast: 63 / 74 °F
Wind: 6 mph from North

Location: Atlantic City International Airport

Current Time: Aug 29, 2014 at 2:33:31 AM

Latest Report: Aug 29, 2014 at 1:54 AM


Visibility: 10 mi

Pressure: 30.08 "Hg

Humidity: 78%

Dew point: 51 °F

Location of Atlantic CityLocation

Historic Weather in Atlantic City — Graph

°F

Atlantic City temperature yesterday

Maximum temperature yesterday: 81 °F (at 1:54 PM)
Minimum temperature yesterday: 61 °F (at 10:54 PM)
Average temperature yesterday: 73 °F

Past Weeks' High & Low Weather Summary

 TemperatureHumidityPressure
High87 °F (Aug 27, 2:54 PM)100% (Aug 22, 5:00 AM)30.18 "Hg (Aug 22, 5:00 AM)
Low55 °F (Aug 16, 3:54 AM)37% (Aug 15, 2:54 PM)29.83 "Hg (Aug 14, 12:54 AM)
Average70 °F74%29.99 "Hg
* Reported Aug 14 12:54 AM — Aug 29 12:54 AM, Atlantic City, Weather by CustomWeather, © 2014

Note: Actual official high and low records may vary slightly from our data, if they occured in-between our weather recording intervals... More about our weather records

Advertising

Atlantic City weather history for previous 24 hours

 ConditionsComfort  
Time TempWeatherWind HumidityBarometerVisibility
12:54 AM
Aug 29
60 °FClear.8 mph75%30.08 "Hg10 mi
11:54 PM
Aug 28
61 °FClear.7 mph75%30.06 "Hg10 mi
10:54 PM61 °FClear.3 mph78%30.04 "Hg10 mi
9:54 PM63 °FClear.5 mph75%30.03 "Hg10 mi
8:54 PM64 °FClear.7 mph73%30.01 "Hg10 mi
7:54 PM70 °FSunny.5 mph57%29.98 "Hg10 mi
6:54 PM75 °FSunny.6 mph47%29.95 "Hg10 mi
5:54 PM79 °FSunny.13 mph44%29.93 "Hg10 mi
4:54 PM80 °FSunny.13 mph42%29.91 "Hg10 mi
3:54 PM81 °FSunny.12 mph42%29.90 "Hg10 mi
2:54 PM81 °FSunny.12 mph41%29.90 "Hg10 mi
1:54 PM81 °FSunny.15 mph45%29.91 "Hg10 mi
12:54 PM80 °FSunny.12 mph47%29.90 "Hg10 mi
11:54 AM79 °FSunny.14 mph48%29.91 "Hg10 mi
10:54 AM77 °FSunny.12 mph52%29.92 "Hg10 mi
9:54 AM75 °FSunny.13 mph55%29.91 "Hg10 mi
8:54 AM73 °FSunny.14 mph59%29.90 "Hg10 mi
7:54 AM72 °FSunny.14 mph64%29.89 "Hg10 mi
6:54 AM71 °FPassing clouds.13 mph66%29.87 "Hg10 mi
5:54 AM70 °FClear.8 mph87%29.85 "Hg10 mi
4:54 AM71 °FClear.N/A87%29.83 "Hg10 mi
3:54 AM70 °FClear.N/A90%29.83 "Hg10 mi
2:54 AM71 °FPassing clouds.N/A87%29.83 "Hg10 mi
Weather by CustomWeather, © 2014

See weather overviewHow to use our weather pages